Gold Country Challenge - 2-Day Hands on Inventory Complete

Station: Loft Fly Inventory - T Race

Distance: 10 Miles

Release: 11-Jun-2022 06:25

Weather Release: Hot Saturday    Arrival: Showers Sunday

Wind at Release:     Wind at Arrival:

Temp at Release: °    Temp at Arrival: °

Lofts: 83

Birds: 364

Clocked: 348

Hands on Inventory & 10th Flight Pulling over 2 Days. Complete at 348 Birds
Drops Pos Breeder Pigeon Name Color Sex Ent Arrival Speed To Win Elg Pd
1 Kereru Whare - CA 0051-AU22-BISH MLY H 1 06:36:53.40 1480.235 00:00:00 Yes
2 T M Lofts - CA 2806-AU22-FOYS Marites BC H 1 06:38:48.30 1274.900 00:01:55 Yes
3 Genesis Syndicate Loft - AZ 0647-AU22-GENS BB H 1 06:39:43.10 1195.788 00:02:50 Yes
4 Genesis Syndicate Loft - AZ 0622-AU22-GENS BBWF H 2 06:40:24.50 1142.239 00:03:31 Yes
5 Scm Lofts - CA 19528-AU22-JEDD BB H 1 06:40:52.30 1108.894 00:03:59 Yes
6 Griffin Loft - ID 22203-AU22-RMR BB H 1 06:41:13.10 1085.192 00:04:20 Yes
7 Goshentown Lofts - TN 11306-AU22-NASH PDBN H 1 06:41:56.20 1039.166 00:05:03 Yes
8 Watson & Williams - NV 14005-AU22-JEDD DC H 1 06:42:28.60 1007.057 00:05:35 Yes
9 Jim Lauritzen - CA 0608-AU22-EAV BC H 1 06:43:06.90 971.571 00:06:13 Yes
10 Blue Sierra - NE 0107-AU22-SR BB H 1 06:43:52.10 932.780 00:06:59 Yes
11 Griffin Loft - ID 22200-AU22-RMR BC H 2 06:44:25.70 905.893 00:07:32 Yes
12 Kereru Whare - CA 0001-AU22-BISH RCPD H 2 06:44:56.50 882.574 00:08:03 Yes
13 Bieche Lofts - CA 2011-AU22-BIE GRIZ H 1 06:45:54.20 841.971 00:09:01 Yes
14 Watson & Williams - NV 18319-AU22-JEDD DC H 2 06:46:22.50 823.392 00:09:29 Yes
15 Dan & Greg Coury - AZ 2034-AU22-PEGA BCWF H 1 06:47:01.50 799.092 00:10:08 Yes
16 Kereru Whare - CA 0046-AU22-BISH BB H 3 06:47:28.00 783.383 00:10:35 Yes
17 Marengo Creek Farms - GA 4107-AU22-MCF BB H 1 06:47:56.10 767.386 00:11:03 Yes
18 House Of Paine - CA 0700-AU22-HOP BB H 1 06:48:32.50 747.611 00:11:39 Yes
19 B S Lofts - CA 0226-AU22-BSL 13316&13326-2 BBSP H 1 06:49:18.20 724.180 00:12:25 Yes
20 Overtime Loft - CA 19164-AU22-JEDD BB H 1 06:49:54.80 706.449 00:13:01 Yes
21 Genesis Syndicate Loft - AZ 0662-AU22-GENS BC H 3 06:50:25.10 692.414 00:13:32 Yes
22 Ryan Austin - CA 39921-AU22-JEDD BBPD H 1 06:51:30.10 664.109 00:14:37 Yes
23 Watson & Williams - NV 14009-AU22-JEDD BC H 3 06:51:58.80 652.335 00:15:05 Yes
24 Jim Lauritzen - CA 0601-AU22-EAV BC H 2 06:52:26.10 641.516 00:15:33 Yes
25 G.S.P Loft - CA 0081-AU22-SHEL DCSP H 1 06:53:08.30 625.481 00:16:15 Yes
26 Racing Pigeon Mall - WA 0218-AU22-RPM BLK H 1 06:53:36.50 615.205 00:16:43 Yes
27 Marengo Creek Farms - GA 4108-AU22-MCF BB H 2 06:54:01.40 606.409 00:17:08 Yes
28 A P C Loft - TX 22017-AU22-APC BB H 1 06:54:29.80 596.678 00:17:36 Yes
29 Endo/Wong/Kojiro - HI 0452-IF22-PBM BC H 1 06:55:11.50 582.942 00:18:18 Yes
30 PNWC - ID 2124-AU22-PNWC “PAIR 26” BB H 1 06:56:06.70 565.704 00:19:13 Yes
31 Darryl Coston - CA 1315-AU22-BAK BC H 1 06:56:36.50 556.815 00:19:43 Yes
32 Watson & Williams - NV 14002-AU22-JEDD BB H 4 06:57:11.50 546.725 00:20:18 Yes
33 Marengo Creek Farms - GA 4111-AU22-MCF BB H 3 06:57:55.70 534.494 00:21:02 Yes
34 Marengo Creek Farms - GA 4109-AU22-MCF BB H 4 06:58:19.40 528.158 00:21:26 Yes
35 Funny Farm Loft - CA 6059-AU22-ARC 4428/2850 DC H 1 06:59:17.00 513.369 00:22:24 Yes
36 Kereru Whare - CA 0049-AU22-BISH BB H 4 06:59:49.00 505.505 00:22:56 Yes
37 Sierra Ranch - CA 0123-AU22-SR BB H 1 07:00:14.40 499.432 00:23:21 Yes
38 Silicon Valley Syndicate - CA 22035-AU22-SVS BB H 1 07:00:45.40 492.216 00:23:52 Yes
39 Ryan Austin - CA 39916-AU22-JEDD BBWF H 2 07:01:12.70 486.031 00:24:19 Yes
40 Frank Gonsalves - CA 0703-AU22-AA BC H 1 07:02:07.80 474.010 00:25:14 Yes
41 Watson & Williams - NV 18313-AU22-JEDD BB H 5 07:02:34.80 468.334 00:25:41 Yes
42 Tim Brandon - CA 22100-AU22-SNV BB H 1 07:03:03.70 462.407 00:26:10 Yes
43 Ryan Austin - CA 39912-AU22-JEDD BBPD H 3 07:03:37.70 455.624 00:26:44 Yes
44 Guinto-Hedderson - CA 1016-AU22-FSC 14.6855 X 21.6208 BC H 1 07:04:12.30 448.922 00:27:19 Yes
45 Skylinerpl.Com - UT 0333-AU22-UVI IDA/LG BB H 1 07:04:54.80 440.955 00:28:01 Yes
46 B S Lofts - CA 0215-AU22-BSL 237&926-2 BB H 2 07:05:18.60 436.616 00:28:25 Yes
47 Kern Flyers - CA 2001-AU22-JEDD BB H 1 07:06:25.80 424.813 00:29:32 Yes
48 Endo/Wong/Kojiro - HI 0003-AU22-PONO BB H 2 07:06:48.10 421.036 00:29:55 Yes
49 PNWC - ID 2126-AU22-PNWC “PAIR 19” BB H 2 07:07:17.10 416.223 00:30:24 Yes
50 Ryan Austin - CA 39920-AU22-JEDD BBPD H 4 07:08:03.30 408.779 00:31:10 Yes
51 RCManaois Family Loft - NV 0010-AU22-RCML BC H 1 07:08:24.70 405.421 00:31:31 Yes
52 Denis Eastwood - CA 39904-AU22-JEDD BB H 1 07:09:00.50 399.924 00:32:07 Yes
53 Sparks Trio Syn - NV 2312-AU22-RENO Kayla BBWF H 1 07:09:36.60 394.530 00:32:43 Yes
54 PNWC - ID 2145-AU22-PNWC “PAIR 30” BB H 3 07:10:00.70 391.010 00:33:07 Yes
55 RCManaois Family Loft - NV 0017-AU22-RCML BBT H 2 07:10:37.80 385.711 00:33:44 Yes
56 Denis Eastwood - CA 39911-AU22-JEDD BCWF H 2 07:11:07.90 381.517 00:34:14 Yes
57 Watson & Williams - NV 18314-AU22-JEDD BBSP H 6 07:11:40.20 377.116 00:34:47 Yes
58 D B Loft - CA 0501-AU22-JEDD Levi BC H 1 07:12:26.60 370.969 00:35:33 Yes
59 Dan & Greg Coury - AZ 0170-AU22-AONE BC C 2 07:12:51.50 367.752 00:35:58 Yes
60 R & D Racing 2 - ON 18908-AU22-JEDD BBSP H 1 07:13:33.60 362.438 00:36:40 Yes
61 G.S.P Loft - CA 0056-AU22-SHEL PIED H 2 07:14:03.40 358.769 00:37:10 Yes
62 R & D Racing 2 - ON 6846-CU22-CRPU SIL H 2 07:14:33.90 355.089 00:37:41 Yes
63 Tim Brandon - CA 22101-AU22-SNV BB H 2 07:15:05.10 351.403 00:38:12 Yes
64 Gomez Loft - CA 6136-AU22-CHP BB H 1 07:15:48.00 346.457 00:38:55 Yes
65 Whiskey Hollow Loft - TX 0008-AU22-WACO BB H 1 07:16:12.30 343.716 00:39:19 Yes
66 Skylinerpl.Com - UT 0311-AU22-UVI Troy/Ellie Jane BBWF H 2 07:16:54.10 339.103 00:40:01 Yes
67 BIRDHIGH RANCH - CA 8809-AU22-JEDD BBWF H 1 07:17:36.40 334.558 00:40:43 Yes
68 Goshentown Lofts - TN 11315-AU22-NASH BBWF H 2 07:18:07.30 331.315 00:41:14 Yes
69 House Of Paine - CA 0712-AU22-HOP BC H 2 07:18:37.80 328.175 00:41:44 Yes
70 Kern Flyers - CA 2002-AU22-JEDD PIED H 2 07:19:36.60 322.285 00:42:43 Yes
71 Sierraminis - CA 0106-AU22-SR BBWF H 1 07:20:29.70 317.146 00:43:36 Yes
72 Endo/Wong/Kojiro - HI 0007-AU22-PONO BB H 3 07:21:07.80 313.558 00:44:14 Yes
73 Portland Loft - OR 4196-AU22-PNW BB H 1 07:21:52.00 309.496 00:44:59 Yes
74 Genesis Syndicate Loft - AZ 0663-AU22-GENS DCWF H 4 07:22:25.00 306.531 00:45:32 Yes
75 Christopher Loft - UT 0035-AU22-GS PIED H 1 07:22:58.70 303.562 00:46:05 Yes
76 Funny Farm Loft - CA 6016-AU22-ARC 4405/4543 BBS H 2 07:23:31.40 300.735 00:46:38 Yes
77 PNWC - ID 2127-AU22-PNWC “PAIR 19” BB H 4 07:23:56.10 298.634 00:47:03 Yes
78 D B Loft - CA 0549-AU22-JEDD CALIFORNIA GOLD BC H 2 07:24:35.50 295.343 00:47:42 Yes
79 BIRDHIGH RANCH - CA 8819-AU22-JEDD BB H 2 07:25:04.40 292.975 00:48:11 Yes
80 Denis Eastwood - CA 39903-AU22-JEDD BB H 3 07:25:44.50 289.752 00:48:51 Yes
81 Dan & Greg Coury - AZ 2039-AU22-PEGA BC H 3 07:26:09.10 287.809 00:49:16 Yes
82 Skychargers - CA 0112-AU22-CORO BLKW H 1 07:26:46.10 284.936 00:49:53 Yes
83 Blue Sierra - NE 1005-AU22-SR BCWF H 2 07:27:14.50 282.769 00:50:21 Yes
84 Blue Sierra - NE 0018-AU22-GGRO DC H 3 07:27:44.50 280.515 00:50:51 Yes
85 Marengo Creek Farms - GA 4150-AU22-MCF BB H 5 07:28:29.30 277.216 00:51:36 Yes
86 Skylinerpl.Com - UT 0343-AU22-UVI 3152/49911 SMOK H 3 07:28:46.70 275.956 00:51:53 Yes
87 A P C Loft - TX 22039-AU22-APC BB H 2 07:29:47.30 271.654 00:52:54 Yes
88 Sparks Trio Syn - NV 2315-AU22-RENO Sinister BLK H 2 07:30:47.10 267.538 00:53:54 Yes
89 Christopher Loft - UT 0022-AU22-GS BB H 2 07:31:31.60 264.556 00:54:38 Yes
90 Kern Flyers - CA 0008-AU22-BAK BB H 3 07:38:13.60 240.350 01:01:20 Yes
91 Christopher Loft - UT 0078-AU22-GS BB H 3 07:38:47.10 238.531 01:01:54 Yes
92 Kereru Whare - CA 0041-AU22-BISH MLY H 5 07:39:14.40 237.069 01:02:21 Yes
93 Oddiebeng Loft - CA 19802-AU22-FOYS BB H 1 07:39:44.10 235.499 01:02:51 Yes
94 Sparks Trio Syn - NV 2398-AU22-RENO Cerulean BB H 3 07:40:08.70 234.214 01:03:15 Yes
95 Denis Eastwood - CA 39906-AU22-JEDD BBWF H 4 07:40:49.50 232.113 01:03:56 Yes
96 Bieche Lofts - CA 2014-AU22-BIE BC H 2 07:41:26.30 230.251 01:04:33 Yes
97 Skylinerpl.Com - UT 0336-AU22-UVI 607/214 BCSP H 4 07:42:12.20 227.969 01:05:19 Yes
98 Racing Pigeon Mall - WA 0213-AU22-RPM BB H 2 07:42:42.90 226.469 01:05:49 Yes
99 B & N Lofts - CA 30401-AU22-JEDD Kelsey BC H 1 07:43:21.30 224.619 01:06:28 Yes
100 T M Lofts - CA 2805-AU22-FOYS Bella BC H 2 07:43:59.20 222.822 01:07:06 Yes

There are 348 bird records

Note: These Race Results are unofficial and subject to change until verified by the Race Committee and declared final.